Regional Weather Roundup
Issued by NWS Upton, NY

Home | Current Version | Previous Version | Text Only | Print | Product List | Glossary On
Versions: 1 2 3 4 5 6 7 8 9 10 11 12 13 14 15 16 17 18 19 20 21 22 23 24 25 26 27 28 29 30 31 32 33 34 35 36 37 38 39 40 41 42 43 44 45 46 47 48 49 50
000
ASUS41 KOKX 010304
RWROKX

REGIONAL WEATHER ROUNDUP
NATIONAL WEATHER SERVICE NEW YORK NY
1100 PM EDT MON AUG 31 2015

NOTE: "FAIR" INDICATES FEW OR NO CLOUDS BELOW 12,000 FEET WITH NO
SIGNIFICANT WEATHER AND/OR OBSTRUCTIONS TO VISIBILITY.

NYZ071-072-176-178-NJZ106-104-010400-
NEW YORK CITY METRO AREA


CITY           SKY/WX    TMP DP  RH WIND       PRES   REMARKS
CENTRAL PARK   PTCLDY    84  64  50 W7        30.01S
LAGUARDIA APRT MOCLDY    86  65  49 W9        29.98R
KENNEDY INTL   PTCLDY    83  69  62 W15       29.99S
NEWARK/LIBERTY MOCLDY    83  68  60 SW13      29.99R
BRNX BOT. GARD   N/A     84  64  51 SW6       30.00S
TETERBORO      PTCLDY    83  64  52 W8        29.98R
$$

NYZ177-179-078>081-010400-
LONG ISLAND NEW YORK

CITY           SKY/WX    TMP DP  RH WIND       PRES   REMARKS
FARMINGDALE    FAIR      82  68  62 W10       29.98S
ISLIP          PTCLDY    78  68  71 SW6       29.96S
SHIRLEY        PTCLDY    78  69  73 CALM      29.98S
WESTHAMPTON    MOCLDY    78  71  79 SW7       29.99R
MONTAUK POINT    N/A     79  69  71 SW6       29.97R
$$

NYZ052-065-067-010400-
HUDSON VALLEY

CITY           SKY/WX    TMP DP  RH WIND       PRES   REMARKS
WHITE PLAINS   CLEAR     76  66  71 NW3       29.99S
NEWBURGH       CLEAR     73  70  88 CALM      30.01S
MONTGOMERY     CLEAR     69  67  93 CALM      30.00R
POUGHKEEPSIE   CLEAR     71  68  90 CALM      29.98R
ALBANY         CLEAR     74  62  66 W10       29.98R
$$

NJZ001-105-106-008-010-013-015-019>022-104-010400-
NEW JERSEY

CITY           SKY/WX    TMP DP  RH WIND       PRES   REMARKS
NEWARK/LIBERTY MOCLDY    83  68  60 SW13      29.99R
TETERBORO      PTCLDY    83  64  52 W8        29.98R
CALDWELL       PTCLDY    79  66  64 CALM      30.00R
MORRISTOWN     CLEAR     77  64  65 W3        30.00R
SOMERVILLE     CLEAR     74  66  76 CALM      29.99R
SUSSEX         CLEAR     69  66  90 CALM      30.02R
ANDOVER          N/A     70  68  93 CALM      30.03R
TRENTON        CLEAR     77  69  76 SW5       30.02R
MILLVILLE      CLEAR     74  69  85 W6        30.05S
ATLANTIC CITY  CLEAR     76  68  76 SW8       30.04S
WRIGHTSTOWN    CLEAR     74  69  83 SW8       30.00S
TOMS RIVER     CLEAR     73  66  78 SW7       30.03S
BELMAR         CLEAR     79  64  61 SW7       30.02R
$$

PAZ047>061-062-071-010400-
EASTERN PENNSYLVANIA

CITY           SKY/WX    TMP DP  RH WIND       PRES   REMARKS
PHILADELPHIA   CLEAR     79  67  66 SW10      30.04R
ALLENTOWN      CLEAR     76  68  76 CALM      30.02S
SCRANTON       CLEAR     72  68  87 E3        30.05R
$$

CTZ002-004>006-009-010-012-RIZ004-006-007-MAZ004-011-015-010400-
SOUTHERN NEW ENGLAND
 IN CT

CITY           SKY/WX    TMP DP  RH WIND       PRES   REMARKS
BRADLEY INTL   PTCLDY    73  64  73 NW7       29.96S
HARTFORD       CLEAR     80  65  59 NW9       29.96R
DANBURY        CLEAR     71  65  81 CALM      30.01R
WTRBRY/OXFORD  CLEAR     72  63  73 N3        30.02R
BRIDGEPORT     PTCLDY    81  68  64 NW5       29.96S
MERIDEN        CLEAR     71  67  87 CALM      29.97R
NEW HAVEN      PTCLDY    75  70  84 CALM      29.97R
CHESTER        NOT AVBL
GROTON         CLEAR     77  72  84 NW3       29.95R
WILLIMANTIC    CLEAR     73  68  84 CALM      29.97R

 IN RI

CITY           SKY/WX    TMP DP  RH WIND       PRES   REMARKS
PROVIDENCE     PTCLDY    76  67  73 W3        29.95R
BLOCK ISLAND   MOCLDY    73  70  88 W9        29.96R
WESTERLY       PTCLDY    76  70  82 CALM      29.97R

 IN MA

CITY           SKY/WX    TMP DP  RH WIND       PRES   REMARKS
BOSTON         CLEAR     79  63  57 W10       29.92S
WORCESTER      CLEAR     72  61  68 W10       29.99R
WESTFIELD      CLEAR     72  63  73 NW3       29.97R
PROVINCETOWN     N/A     72  63  73 SW7       29.92S
NANTUCKET      CLEAR     73  69  87 W15       29.94S
$$

ANZ330-335-338-340-345-350-353-355-010400-
COASTAL MARINE OBSERVATIONS


STATION/POSITION TIME  SKY/WX   TEMP    WIND        PRES    VSBY  WAVE
                                AIR SEA DIR/SP/G                  HT/PER
                 (UTC)          (F)     (DEG/KT/KT) (MB)    (MI)  (FT/S)
NY HARB ENTRANCE 0150            79 76  240/ 12/ 14 1015.0          3/ 9
4S FIRE IS       NOT AVBL
20S FIRE ISLAND  0150            78 75  240/ 16/ 17 1014.9          3/ 9
GREAT SOUTH BAY  0215            79 78  270/ 10/ 12   N/A
23SW MTP         0250            76 72  260/ 14/ 16 1014.2          3/ 5
HUDSON CANYON    NOT AVBL
KINGS POINT      0200            84 75  290/  6/  9 1014.3
EXECUTION ROCKS  0200            82     240/  8/ 12   N/A
CENTRAL LI SOUND NOT AVBL
EASTERN LI SOUND 0200            73 71  310/  2/  2   N/A
ROBBINS REEF     0200            84     250/ 14/ 17 1014.1
$$


>>>>>>>>>>>>>>>>>>>>>>>>>>>> KEY <<<<<<<<<<<<<<<<<<<<<<<<<<<
>                                                          <
>     SKY/WX - SKY CONDITION/PRESENT WEATHER               <
>     TMP    - TEMPERATURE IN FAHRENHEIT                   <
>     DP     - DEWPOINT IN FAHRENHEIT                      <
>     RH     - RELATIVE HUMIDITY IN PERCENT                <
>     WIND   - DIRECTION AND SPEED IN MPH                  <
>     PRES   - MEAN SEA LEVEL PRESSURE IN INCHES OF HG     <
>     WCI    - WIND CHILL INDEX                            <
>     VSB    - VISIBILITY IN MILES                         <
>     HX     - HEAT INDEX                                  <
>     TC     - TEMPERATURE IN CELSIUS                      <
>     VRB    - VARIABLE WIND DIRECTION                     <
>                                                          <
>>>>>>>>>>>>>>>>>>>>>>>>>>>> KEY <<<<<<<<<<<<<<<<<<<<<<<<<<<




USA.gov is the U.S. government's official web portal to all federal, state and local government web resources and services.